Regional Weather Roundup
Issued by NWS Cleveland, OH

Home | Current Version | Previous Version | Graphics & Text | Print | Product List | Glossary On
Versions: 1 2 3 4 5 6 7 8 9 10 11 12 13 14 15 16 17 18 19 20 21 22 23 24 25 26 27 28 29 30 31 32 33 34 35 36 37 38 39 40 41 42 43 44 45 46 47 48 49 50
000
ASUS41 KCLE 182200
RWRCLE
OHIO REGIONAL WEATHER ROUNDUP
NATIONAL WEATHER SERVICE WILMINGTON, OH
600 PM EDT THU SEP 18 2014

NOTE: "FAIR" INDICATES FEW OR NO CLOUDS BELOW 12,000 FEET WITH NO
SIGNIFICANT WEATHER AND/OR OBSTRUCTIONS TO VISIBILITY.

OHZ001>008-015>018-024>027-034-035-043-044-182300-
   NORTHWEST OHIO

CITY           SKY/WX    TMP DP  RH WIND       PRES   REMARKS
DEFIANCE       SUNNY     69  47  45 NE5       30.10F
FINDLAY        SUNNY     70  50  49 NE12      30.10S
TOLEDO EXPRESS PTSUNNY   68  52  56 NE10      30.12R
TOLEDO METCALF MOSUNNY   67  51  56 E9        30.13S
LIMA           MOSUNNY   71  49  45 N9        30.09S
$$

OHZ009>014-019>023-028>033-038-089-182300-
   NORTHEAST OHIO

CITY           SKY/WX    TMP DP  RH WIND       PRES   REMARKS
CLE-HOPKINS    MOSUNNY   63  52  67 NE10      30.15R
CLE-LAKEFRONT  SUNNY     63  53  70 NE9       30.12S
CUY CO. ARPT   MOSUNNY   61  52  72 NE13      30.13S
LORAIN-ELYRIA  SUNNY     67  52  58 NE8       30.14R
ASHTABULA      MOSUNNY   62  50  64 VRB3      30.13F
AKRON-CANTON   MOSUNNY   67  48  50 N8        30.10S
WOOSTER        NOT AVBL
MANSFIELD      SUNNY     66  49  54 N10       30.12R
YOUNGSTOWN     MOSUNNY   64  50  60 N14       30.11R
$$

OHZ042-051>053-060>062-070>072-077>081-182300-
  SOUTHWEST OHIO

CITY           SKY/WX    TMP DP  RH WIND       PRES   REMARKS
CINC-COVINGTON MOSUNNY   71  46  40 E10       30.05F
CINC-LUNKEN    SUNNY     72  50  45 NE7       30.05F
HAMILTON       SUNNY     72  48  42 E7        30.07S
DAYTON         NOT AVBL
WRIGHT-PAT AFB MOSUNNY   72  47  39 E7        30.07F
DAYTON GENERAL SUNNY     70  47  43 E8        30.07S
WILMINGTON     SUNNY     69  45  41 NE8       30.07F
$$

OHZ036-037-039>041-045>050-054>059-063>069-073>076-082>088-182300-
  CENTRAL AND SOUTHEAST OHIO

CITY           SKY/WX    TMP DP  RH WIND       PRES   REMARKS
COLUMBUS       MOSUNNY   72  46  39 E7        30.08S
OSU AIRPORT    MOSUNNY   70  45  40 NE10      30.08F
BOLTON FIELD   MOSUNNY   70  48  46 CALM      30.08F
RICKENBACK AFB NOT AVBL
NEWARK         PTSUNNY   69  45  41 E8        30.08F
MARION         SUNNY     69  48  47 NE14      30.10S
LANCASTER      PTSUNNY   70  46  42 E8        30.09S
ZANESVILLE     PTSUNNY   68  45  43 VRB3      30.09S
NEW PHILLY     MOSUNNY   69  48  47 NE6       30.09S
$$



USA.gov is the U.S. government's official web portal to all federal, state and local government web resources and services.